TimeCST,TemperatureF,Dew PointF,Humidity,Sea Level PressureIn,VisibilityMPH,Wind Direction,Wind SpeedMPH,Gust SpeedMPH,PrecipitationIn,Events,Conditions,WindDirDegrees,DateUTC
12:53 AM,28.9,23.0,78,30.19,10.0,North,12.7,20.7,N/A,,Overcast,10,2011-11-20 06:53:00
1:53 AM,28.0,21.9,78,30.18,10.0,NNE,13.8,-,N/A,,Overcast,20,2011-11-20 07:53:00
2:53 AM,28.0,21.9,78,30.23,10.0,NNE,9.2,-,N/A,,Overcast,20,2011-11-20 08:53:00
3:53 AM,26.6,21.2,80,30.19,10.0,North,10.4,-,N/A,,Overcast,10,2011-11-20 09:53:00
4:53 AM,28.0,21.9,78,30.24,10.0,NNE,13.8,-,N/A,,Overcast,20,2011-11-20 10:53:00
5:53 AM,28.4,21.2,74,30.22,10.0,NNE,9.2,-,N/A,,Overcast,20,2011-11-20 11:53:00
6:01 AM,28.4,23.0,80,30.23,10.0,North,11.5,-,N/A,,Overcast,10,2011-11-20 12:01:00
6:53 AM,28.0,21.9,78,30.27,10.0,NNE,10.4,-,N/A,,Overcast,30,2011-11-20 12:53:00
7:53 AM,28.0,21.0,75,30.30,10.0,North,11.5,-,N/A,,Overcast,10,2011-11-20 13:53:00
8:53 AM,27.0,21.0,78,30.31,10.0,North,12.7,-,N/A,,Overcast,360,2011-11-20 14:53:00
9:53 AM,28.4,21.2,74,30.27,10.0,North,13.8,19.6,N/A,,Overcast,10,2011-11-20 15:53:00
10:53 AM,28.9,21.9,75,30.31,10.0,North,12.7,-,N/A,,Overcast,350,2011-11-20 16:53:00
11:18 AM,30.2,21.2,69,30.25,10.0,NNE,10.4,-,N/A,,Overcast,20,2011-11-20 17:18:00
11:53 AM,30.2,21.2,69,30.25,10.0,North,12.7,-,N/A,,Overcast,10,2011-11-20 17:53:00
12:53 PM,32.0,21.9,66,30.27,10.0,NNE,11.5,-,N/A,,Overcast,30,2011-11-20 18:53:00
1:53 PM,35.1,23.0,61,30.25,10.0,North,6.9,-,N/A,,Overcast,10,2011-11-20 19:53:00
2:53 PM,35.1,23.0,61,30.25,10.0,NNE,9.2,-,N/A,,Clear,30,2011-11-20 20:53:00
3:53 PM,36.0,24.1,62,30.24,10.0,ENE,8.1,-,N/A,,Clear,60,2011-11-20 21:53:00
4:53 PM,35.6,24.8,65,30.20,10.0,NE,6.9,-,N/A,,Clear,50,2011-11-20 22:53:00
5:53 PM,33.8,24.8,70,30.21,10.0,ENE,4.6,-,N/A,,Scattered Clouds,60,2011-11-20 23:53:00
6:53 PM,34.0,24.1,67,30.26,10.0,East,3.5,-,N/A,,Overcast,80,2011-11-21 00:53:00
7:53 PM,34.0,24.1,67,30.28,10.0,East,3.5,-,N/A,,Overcast,90,2011-11-21 01:53:00
8:53 PM,34.0,25.0,70,30.26,10.0,East,5.8,-,N/A,,Overcast,90,2011-11-21 02:53:00
9:53 PM,34.0,24.1,67,30.26,10.0,East,4.6,-,N/A,,Overcast,90,2011-11-21 03:53:00
10:53 PM,34.0,25.0,70,30.26,10.0,Calm,Calm,-,N/A,,Overcast,0,2011-11-21 04:53:00
11:53 PM,34.0,25.0,70,30.25,10.0,Calm,Calm,-,N/A,,Overcast,0,2011-11-21 05:53:00